RH
76 55 73 87 90 73 94 93 93 93 90 95 95 99 98 95 92 91 90 85 83 82 82 82 82 82 83 83 92 95 96 87 83 78 75 75 72 66 70 55 60 74 85
86 83 89 79 75 89 90 91 92 92 89 98 99 85 80 82 79 79 78 78 78 79 80 80 81 80 82 84 85 88 79 62 58 66 63 55 57 80 68 67 59 66 88
91 87 72 57 73 86 84 87 90 92 95 92 88 83 79 76 76 77 78 81 81 82 83 86 87 89 88 84 83 84 84 56 23 22 30 40 58 78 90 94 87 96 97
68 59 50 62 81 87 84 90 91 89 79 75 82 78 77 76 77 78 81 82 80 81 84 82 84 85 86 84 83 83 84 45 29 44 42 42 39 69 73 73 80 87 94
58 78 84 88 87 88 88 89 85 70 66 70 81 78 79 81 82 80 80 79 79 80 81 84 86 88 88 85 85 84 73 31 31 43 47 48 47 63 68 67 64 68 75
85 93 94 89 84 86 87 79 65 58 56 77 80 80 78 77 76 74 73 78 84 87 87 86 87 84 83 82 80 54 38 45 48 45 45 46 50 68 72 72 70 75 77
91 90 83 84 87 88 79 65 61 53 77 78 76 73 54 42 49 43 70 77 82 86 86 85 83 76 51 50 44 44 51 51 50 53 48 51 54 70 73 75 78 91 92
89 83 88 90 90 79 66 54 43 30 27 25 25 26 22 24 32 32 42 69 76 78 61 58 56 48 49 48 48 47 47 50 54 56 54 52 78 72 71 73 79 85 88
79 89 94 94 85 71 56 44 28 20 21 22 20 28 35 33 24 28 33 36 40 41 47 47 52 52 51 48 47 44 46 50 53 53 49 57 82 77 77 74 73 75 78
83 91 96 89 77 62 49 34 22 22 22 21 34 41 43 43 35 39 43 48 52 53 54 53 52 51 50 48 46 45 45 49 50 49 44 86 79 76 77 78 78 76 76
95 95 94 82 68 54 42 26 22 24 27 34 38 41 39 34 42 47 49 53 56 56 55 55 52 50 49 48 47 47 47 50 50 50 46 83 79 75 76 80 76 74 75
100 95 87 75 61 50 36 25 28 33 35 37 38 38 40 41 44 48 50 52 55 55 55 54 52 50 50 49 48 50 50 52 52 56 48 84 85 89 77 81 86 83 81
96 87 75 70 60 47 31 29 35 34 36 39 39 39 40 41 44 47 51 52 53 52 54 52 52 51 52 51 51 52 52 54 56 59 57 61 87 74 89 88 83 82 85
87 75 66 64 60 47 39 33 36 37 33 35 38 40 40 42 44 47 49 50 50 51 53 52 52 52 54 53 55 54 55 58 60 63 63 61 93 97 96 95 95 96 96
76 66 61 61 53 48 38 41 41 39 38 35 38 41 41 41 45 49 49 49 50 51 52 51 52 53 56 56 56 55 56 57 62 65 66 65 69 90 94 93 95 93 90
68 60 58 54 48 45 44 42 40 38 37 36 33 39 39 38 45 49 48 47 50 50 51 51 53 54 58 57 57 56 57 59 61 66 70 72 74 63 75 94 94 90 86
66 57 53 50 47 42 40 40 38 36 33 36 36 38 37 37 43 49 50 47 52 52 50 50 52 53 59 60 59 60 57 60 62 66 71 72 77 77 74 82 82 85 86
64 56 53 50 48 44 41 40 36 30 33 39 39 39 38 38 46 50 51 49 54 55 52 52 52 53 54 60 61 61 61 61 62 64 67 73 80 74 74 74 77 82 82
64 57 55 52 51 48 43 40 35 33 36 37 39 41 41 40 44 48 50 51 56 57 55 53 54 56 51 54 59 61 63 64 63 64 66 64 80 74 72 72 72 76 84
69 62 55 54 52 50 46 45 40 39 40 40 41 44 42 43 41 46 53 53 56 58 56 54 54 56 55 52 57 62 64 63 62 62 64 65 66 71 73 75 70 73 81
78 68 56 55 52 51 49 48 46 46 46 47 46 46 43 46 41 45 52 56 56 58 62 60 54 56 57 50 50 56 66 66 66 61 62 62 60 65 65 75 70 77 84
70 64 58 55 52 50 49 46 43 43 50 46 47 48 43 45 43 47 52 54 54 59 64 63 55 59 62 59 53 66 79 72 65 61 59 58 56 57 61 62 68 76 73
74 65 62 56 52 50 50 48 49 51 54 54 52 48 47 47 48 44 48 50 55 55 64 65 64 60 65 63 60 56 71 77 71 62 59 56 54 52 54 58 67 69 71
83 71 63 58 53 51 50 49 50 55 59 55 52 48 48 50 48 45 45 47 52 58 64 69 67 66 67 65 66 64 62 60 76 69 59 59 56 56 54 54 60 69 74
86 78 67 60 54 52 51 50 49 51 50 49 50 52 54 55 51 50 44 45 48 55 62 70 70 74 74 69 68 67 65 66 64 72 80 71 56 57 55 58 68 69 70
85 80 72 66 60 53 52 52 50 48 49 53 53 57 59 59 54 53 47 44 47 57 63 65 68 73 75 76 74 73 71 70 73 73 85 81 78 60 54 62 70 75 68
Wind_Speed
26 26 22 20 19 17 12 16 16 14 14 16 15 13 12 11 11 9 9 9 10 10 10 10 9 8 8 8 10 10 9 8 8 9 10 9 8 7 8 9 6 7 8
32 28 26 21 20 18 18 16 15 16 15 15 13 11 10 12 12 11 11 11 11 10 11 11 11 10 10 10 9 9 7 8 8 7 7 11 10 4 5 8 8 8 8
33 29 25 23 23 18 19 17 16 16 14 13 12 12 12 12 12 12 11 11 11 10 11 11 11 10 10 10 10 10 10 9 7 7 7 11 12 6 7 7 8 8 9
31 27 26 26 22 21 19 18 16 14 12 12 12 12 12 11 12 11 11 11 11 11 11 11 11 11 11 10 10 10 10 9 7 10 9 9 6 6 8 11 11 10 12
32 29 28 27 24 22 19 18 15 13 12 12 12 11 12 12 12 11 11 11 11 11 11 11 11 11 11 11 11 11 11 11 8 11 11 9 8 11 12 12 11 11 11
32 30 29 26 24 21 19 17 14 13 12 12 12 12 11 11 11 11 10 11 12 12 12 12 12 12 13 13 12 13 13 13 14 12 10 9 9 11 10 11 11 11 12
34 30 28 26 23 21 18 16 14 13 13 12 12 11 10 10 10 10 11 11 12 12 13 12 13 13 15 16 15 16 18 16 14 12 10 10 11 11 10 10 10 12 14
35 31 28 25 23 20 18 15 13 12 11 10 10 10 10 10 10 11 11 12 13 13 14 14 13 15 17 19 18 17 16 15 12 12 13 13 13 11 10 8 9 11 14
35 33 29 26 23 20 17 14 13 12 12 11 11 13 13 12 12 13 14 15 17 17 19 19 17 15 15 18 16 16 16 12 13 13 14 14 14 12 11 10 9 9 12
35 32 30 27 24 21 18 15 14 13 13 13 13 13 12 12 14 15 16 17 16 17 17 18 17 15 15 14 15 16 14 12 12 14 14 16 14 14 13 11 10 10 11
33 31 29 27 24 21 18 16 15 15 14 14 13 10 10 10 10 13 15 15 15 15 15 15 15 15 14 13 14 15 14 11 13 17 16 15 15 14 13 14 12 10 10
32 32 30 28 25 22 20 18 17 15 13 13 11 8 9 9 11 11 13 13 12 13 14 14 13 13 13 13 14 14 13 12 14 18 19 15 14 15 15 13 14 13 11
33 32 30 27 25 23 22 19 16 14 13 12 11 9 8 9 8 9 10 11 11 11 12 12 13 14 13 12 13 15 14 13 14 17 20 15 15 15 15 11 10 12 12
31 32 31 26 25 22 20 19 16 14 13 13 12 10 9 9 8 8 9 9 9 11 11 12 13 13 13 14 13 13 15 16 13 15 18 16 15 16 21 21 14 16 19
27 36 32 29 25 22 21 19 17 14 12 11 11 10 9 8 9 8 8 8 9 9 10 11 12 12 12 12 14 14 12 12 13 12 14 16 15 15 17 20 21 19 18
25 33 32 28 25 23 21 20 19 16 13 11 11 10 8 8 9 7 7 8 8 9 9 10 11 11 10 10 11 11 13 12 10 12 11 12 14 15 11 16 17 17 16
27 31 29 28 27 25 25 22 19 16 13 12 11 10 9 8 9 7 6 7 8 9 8 9 9 9 9 11 10 9 8 9 10 9 10 9 10 13 14 14 15 15 15
31 32 30 29 27 25 24 21 19 17 14 12 10 9 8 8 7 6 5 6 7 7 8 8 9 9 8 7 8 8 8 7 7 7 7 8 9 8 11 13 14 15 15
36 35 30 27 26 24 23 20 18 17 14 12 10 9 8 7 6 5 4 5 6 5 6 7 8 7 9 5 6 5 3 3 4 6 7 8 6 8 7 8 10 13 13
36 35 32 27 26 24 23 20 18 17 14 12 11 9 8 7 6 5 4 4 4 4 4 5 6 6 8 6 4 4 2 2 4 4 5 5 6 4 5 4 6 7 9
32 36 33 29 27 27 26 24 21 21 18 15 13 11 10 8 6 6 5 4 3 3 3 3 4 5 7 8 4 4 5 2 1 2 3 4 5 5 6 5 5 8 7
36 37 36 33 32 31 29 26 23 22 18 15 15 13 12 10 8 7 6 6 5 5 4 1 3 4 5 9 4 3 1 1 2 1 3 2 4 3 2 3 2 4 6
37 39 39 39 36 32 28 24 17 18 13 17 18 16 15 13 10 9 8 7 7 7 6 3 2 4 4 5 7 3 2 2 2 3 2 1 4 2 4 4 4 2 5
30 36 38 41 39 34 30 28 25 27 21 19 21 17 16 14 12 10 9 9 8 7 7 5 4 3 3 4 5 4 3 3 2 1 2 5 7 9 2 3 1 4 4
37 40 41 41 40 37 35 32 29 26 24 15 19 18 17 15 13 11 10 10 9 8 8 8 6 6 4 3 2 2 3 1 2 2 1 5 8 4 7 4 3 6 9
32 34 38 38 36 37 37 36 33 29 23 19 22 22 20 17 15 13 12 11 10 9 9 7 7 6 5 4 3 3 2 2 2 3 2 2 4 3 6 2 4 4 9
Wind_Direction
153 155 149 149 143 132 135 131 128 123 115 106 99 99 89 90 83 86 74 68 58 54 50 46 42 34 27 22 26 28 20 7 9 16 19 15 0 6 10 10 1 4 5
149 150 152 147 142 133 125 138 128 119 112 102 96 97 91 86 82 78 72 69 63 55 53 49 46 44 36 31 27 20 354 338 339 342 353 357 346 291 4 355 353 352 348
147 147 149 146 140 141 135 127 125 122 121 107 100 93 89 86 81 76 72 66 62 59 56 53 47 43 41 32 27 19 9 356 5 8 8 15 15 41 18 3 5 356 339
146 147 146 142 144 142 134 133 128 124 117 109 102 95 89 85 80 75 71 65 61 57 55 51 43 39 34 28 22 14 5 9 37 39 35 17 39 31 7 355 353 343 342
143 144 145 145 144 140 137 133 129 124 117 109 102 96 89 85 80 73 68 62 57 56 50 49 41 33 31 28 22 16 13 30 55 39 44 38 19 17 5 356 355 350 344
145 142 146 145 146 141 136 133 128 123 115 108 101 95 90 82 75 69 62 61 56 52 47 42 40 34 33 30 25 28 37 63 49 48 37 21 19 17 12 11 12 6 351
149 145 144 147 145 140 136 132 126 119 114 108 101 94 84 78 74 67 64 60 56 52 50 46 44 41 41 38 38 51 62 60 51 43 37 30 23 18 16 19 22 28 33
148 145 148 148 145 143 140 135 130 124 116 108 97 88 80 79 75 69 63 63 60 54 51 48 48 57 51 49 61 59 56 55 50 51 35 24 34 26 20 18 21 23 31
148 149 149 148 147 145 141 137 130 123 114 105 99 92 78 74 68 65 62 62 60 58 57 60 58 50 46 53 55 55 51 61 57 38 22 37 34 28 27 26 23 22 19
153 153 151 151 150 147 143 138 130 122 113 106 99 94 83 76 64 64 67 66 63 60 59 57 50 46 42 52 54 46 60 59 46 33 38 43 36 34 31 27 27 26 25
154 155 155 153 153 150 145 138 131 121 112 105 100 96 82 65 73 63 63 65 59 56 57 51 49 49 49 55 55 53 57 64 46 34 39 43 40 36 36 37 36 35 32
152 159 159 158 156 154 147 141 134 127 122 115 109 99 92 84 71 64 62 63 59 51 54 53 51 52 53 56 60 62 58 64 47 40 39 46 41 40 42 42 47 47 39
155 156 163 161 158 157 151 146 142 135 132 131 125 116 103 95 92 77 68 61 65 53 57 55 58 55 56 56 73 68 65 63 52 43 39 49 50 44 34 35 49 51 49
158 161 163 163 157 157 153 149 144 144 142 137 131 131 132 119 108 93 80 68 67 61 60 56 60 58 63 71 72 73 69 58 57 49 46 54 59 48 45 53 65 69 71
160 161 163 163 161 157 153 150 150 152 149 141 139 137 139 129 113 100 86 75 69 68 63 60 60 64 73 74 74 73 70 62 56 58 55 52 52 52 49 51 62 67 66
160 162 164 167 164 157 157 158 160 160 158 148 140 144 136 126 122 104 90 73 71 67 67 62 66 71 72 77 80 77 75 69 60 59 62 56 52 50 53 48 51 52 51
162 164 169 168 165 162 159 165 166 165 161 149 142 140 134 126 119 108 84 71 67 66 76 68 78 82 92 88 83 79 79 74 71 63 55 56 55 46 45 51 48 46 46
168 167 172 172 171 169 172 173 167 163 160 155 150 151 140 131 123 115 91 71 74 69 66 67 68 73 76 90 90 85 87 84 82 65 53 61 59 55 38 40 42 48 48
180 174 174 179 175 173 174 171 167 163 162 164 162 160 154 145 143 131 105 75 96 78 59 65 70 62 52 99 92 93 102 108 85 78 65 45 76 70 45 34 29 33 45
186 182 180 179 176 175 172 167 164 164 165 169 174 173 171 167 162 154 130 99 107 93 70 64 78 71 44 44 116 154 145 105 79 66 79 65 53 57 64 31 19 15 17
184 185 182 176 177 176 173 171 171 175 173 176 181 185 186 185 182 170 157 154 138 115 83 54 80 81 52 41 106 121 190 151 92 46 107 83 57 50 37 40 13 7 13
180 182 184 182 180 184 184 184 179 182 185 185 187 190 194 193 194 189 185 184 178 166 161 125 88 106 71 41 67 107 64 237 245 207 84 94 48 54 38 14 12 7 352
180 188 189 189 189 191 189 181 180 181 180 185 193 197 197 198 198 202 199 192 186 184 175 167 126 109 107 68 55 101 96 198 339 206 209 15 357 357 29 43 44 41 337
192 194 194 192 192 193 189 186 190 180 177 198 195 198 196 203 205 202 202 195 192 186 184 178 172 156 125 108 118 77 74 101 136 346 174 82 36 12 50 356 35 354 326
185 198 197 196 195 192 191 193 192 192 200 200 199 199 199 201 208 204 201 198 197 192 189 190 195 176 163 155 135 113 128 94 92 127 285 333 350 37 27 23 60 27 38
186 192 189 195 196 197 198 198 199 199 199 197 194 196 197 201 203 206 203 204 202 198 197 198 194 193 190 174 173 159 159 144 111 109 104 327 333 344 19 68 50 37 15